sat.trackr.live / text

‹ back to catalog

STARLINK-3225

NORAD 49737 · 2021-115P

PAYLOAD ACTIVE UNKNOWN

§ Identity

Operator
Country
US
Launch date
2021-12-02
Launch site
AFETR
Launch vehicle
Mass (kg)
RCS (m²)

Purposes: comms

External: N2YO · Heavens-Above · Gunter

§ Orbital elements

Epoch: 2026-05-24T10:48:07.570368Z

Period
95.44 min
Inclination
53.2158°
Eccentricity
0.0001046
Mean motion
15.08838207 rev/d
Perigee alt
539.0 km
Apogee alt
540.5 km
Semi-major
6,917.9 km
B*
4.2482e-5
RAAN
169.0180°
Arg perigee
72.0552°
Mean anomaly
288.0554°
Rev number
24,697

§ Raw data

STARLINK-32251 49737U 21115P   26144.45008762  .00000388  00000+0  42482-4 0  99912 49737  53.2158 169.0180 0001046  72.0552 288.0554 15.08838207246975

JSON: /api/v1/satellites/49737 · /tle

For live sub-satellite position, see the globe view (requires WebGL).

§ Visibility from observer

Set your observer location to see the next 7 days of passes ≥ 10°. The values pass through the URL so the page stays shareable.

No JS? Fill the form by hand. The geolocation button needs JavaScript.